TimeEDT,TemperatureF,Dew PointF,Humidity,Sea Level PressureIn,VisibilityMPH,Wind Direction,Wind SpeedMPH,Gust SpeedMPH,PrecipitationIn,Events,Conditions,WindDirDegrees,DateUTC
12:53 AM,70.0,64.9,84,29.90,10.0,Calm,Calm,-,0.00,Rain,Light Rain,0,2013-05-23 04:53:00
1:53 AM,68.0,64.9,90,29.90,10.0,Calm,Calm,-,0.00,,Partly Cloudy,0,2013-05-23 05:53:00
2:53 AM,66.9,64.0,90,29.90,10.0,Calm,Calm,-,N/A,,Clear,0,2013-05-23 06:53:00
3:53 AM,64.9,63.0,93,29.92,10.0,Calm,Calm,-,N/A,,Clear,0,2013-05-23 07:53:00
4:53 AM,64.9,63.0,93,29.94,10.0,Calm,Calm,-,N/A,,Clear,0,2013-05-23 08:53:00
5:51 AM,64.4,62.6,94,29.96,10.0,Calm,Calm,-,N/A,,Scattered Clouds,0,2013-05-23 09:51:00
5:53 AM,64.0,62.1,93,29.94,10.0,Calm,Calm,-,N/A,,Scattered Clouds,0,2013-05-23 09:53:00
6:53 AM,63.0,62.1,97,29.96,10.0,Calm,Calm,-,N/A,Fog,Shallow Fog,0,2013-05-23 10:53:00
7:53 AM,66.9,64.0,90,29.97,10.0,Calm,Calm,-,N/A,,Scattered Clouds,0,2013-05-23 11:53:00
8:53 AM,70.0,64.9,84,29.97,10.0,South,3.5,-,N/A,,Scattered Clouds,170,2013-05-23 12:53:00
9:53 AM,75.0,63.0,66,29.98,10.0,West,5.8,-,N/A,,Scattered Clouds,270,2013-05-23 13:53:00
10:53 AM,75.9,62.1,62,29.97,10.0,Variable,4.6,-,N/A,,Scattered Clouds,0,2013-05-23 14:53:00
11:53 AM,78.1,62.1,58,29.96,10.0,WNW,10.4,-,N/A,,Scattered Clouds,290,2013-05-23 15:53:00
12:53 PM,80.1,60.1,50,29.94,10.0,West,5.8,-,N/A,,Scattered Clouds,280,2013-05-23 16:53:00
1:53 PM,82.0,59.0,45,29.94,10.0,WNW,11.5,-,N/A,,Scattered Clouds,290,2013-05-23 17:53:00
2:53 PM,82.9,57.9,42,29.94,10.0,WSW,16.1,21.9,N/A,,Scattered Clouds,250,2013-05-23 18:53:00
3:53 PM,82.9,55.0,38,29.93,10.0,West,12.7,25.3,N/A,,Scattered Clouds,280,2013-05-23 19:53:00
4:53 PM,82.9,53.1,36,29.93,10.0,WNW,18.4,29.9,N/A,,Scattered Clouds,290,2013-05-23 20:53:00
5:53 PM,81.0,53.1,38,29.95,10.0,WNW,16.1,24.2,N/A,,Scattered Clouds,290,2013-05-23 21:53:00
6:53 PM,79.0,53.1,40,29.95,10.0,WNW,12.7,-,N/A,,Scattered Clouds,300,2013-05-23 22:53:00
7:53 PM,75.9,54.0,46,29.96,10.0,NW,5.8,-,N/A,,Mostly Cloudy,310,2013-05-23 23:53:00
8:53 PM,73.0,55.0,53,29.97,10.0,North,10.4,-,N/A,,Mostly Cloudy,350,2013-05-24 00:53:00
9:53 PM,72.0,55.0,55,29.99,10.0,North,12.7,-,N/A,,Scattered Clouds,350,2013-05-24 01:53:00
10:53 PM,70.0,55.0,59,30.01,10.0,NNW,11.5,-,N/A,,Mostly Cloudy,340,2013-05-24 02:53:00
11:53 PM,68.0,53.1,59,30.02,10.0,NNW,9.2,-,N/A,,Scattered Clouds,340,2013-05-24 03:53:00